Location: Fatehalanka
(16.3139°N, 80.8379°E)
Time: 20:19:18
(UTC+00:00)

Cosmos 1603 - Pass Details

Date: 14 May 2026
Orbit: 828 x 860 km, 71.0° (Epoch: 7 June)

Event Time Altitude Azimuth Distance (km) Brightness Sun altitude
Rises 22:22:14 0° 344° (NNW) 3,425 7.0 -23.6°
Reaches altitude 10° 22:24:42 10° 345° (NNW) 2,486 6.3 -23.1°
Maximum altitude 22:30:25 85° 73° (ENE) 859 3.7 -21.9°
Drops below altitude 10° 22:36:06 10° 162° (SSE) 2,466 6.0 -20.7°
Sets 22:38:32 0° 163° (SSE) 3,395 6.7 -20.2°
